SBI7084 USMM-UNNT

Flight info

Callsign SBI7084
Flight time 1h 53m
Altitude 35000
Route NESAT W255 LUNEP G715 URAMI W143 SOREB R484 LADOV G832 LAMGA
Aircraft B738/M-SDE2E3FGHIRWXY/LB1

Departure

Time 2026-05-01 07:27
Airport Nadym Airport (USMM)

Arrival

Time 2026-05-01 09:20
Airport Novosibirsk Tolmachevo Airport (UNNT)
Time Latitude Longitude Altitude Speed Heading
2026-05-01 07:23 65.48323 72.69749 58 ft 15 kts 338°
2026-05-01 07:23 65.48552 72.69516 58 ft 21 kts 337°
2026-05-01 07:24 65.48699 72.69367 60 ft 24 kts 337°
2026-05-01 07:24 65.48849 72.69214 62 ft 23 kts 337°
2026-05-01 07:24 65.48991 72.69070 61 ft 22 kts 337°
2026-05-01 07:24 65.49136 72.68956 58 ft 22 kts 337°
2026-05-01 07:25 65.49257 72.68837 54 ft 15 kts 338°
2026-05-01 07:25 65.49310 72.68724 58 ft 8 kts 253°
2026-05-01 07:25 65.49270 72.68733 56 ft 8 kts 104°
2026-05-01 07:25 65.49235 72.68823 51 ft 8 kts 158°
2026-05-01 07:26 65.49180 72.68878 55 ft 12 kts 157°
2026-05-01 07:26 65.49027 72.69033 57 ft 51 kts 157°
2026-05-01 07:26 65.48467 72.69600 61 ft 121 kts 157°
2026-05-01 07:26 65.47506 72.70566 174 ft 167 kts 161°
2026-05-01 07:27 65.46429 72.71690 925 ft 173 kts 161°
2026-05-01 07:27 65.45315 72.72885 1766 ft 177 kts 161°
2026-05-01 07:27 65.44151 72.74167 2562 ft 194 kts 162°
2026-05-01 07:27 65.42868 72.75532 3121 ft 208 kts 160°
2026-05-01 07:28 65.41534 72.76991 3639 ft 219 kts 160°
2026-05-01 07:28 65.40117 72.78582 4223 ft 227 kts 159°
2026-05-01 07:28 65.38660 72.80238 4809 ft 239 kts 159°
2026-05-01 07:28 65.37079 72.82056 5218 ft 262 kts 159°
2026-05-01 07:29 65.35428 72.83980 6117 ft 264 kts 158°
2026-05-01 07:29 65.33798 72.85917 7118 ft 260 kts 159°
2026-05-01 07:29 65.32140 72.87826 7822 ft 269 kts 160°
2026-05-01 07:29 65.30412 72.89712 8566 ft 274 kts 161°
2026-05-01 07:30 65.28657 72.91583 9408 ft 277 kts 162°
2026-05-01 07:30 65.26888 72.93454 10255 ft 279 kts 162°
2026-05-01 07:30 65.25086 72.95335 10634 ft 298 kts 162°
2026-05-01 07:30 65.23109 72.97400 10824 ft 323 kts 159°
2026-05-01 07:31 65.21080 73.00132 11074 ft 345 kts 153°
2026-05-01 07:31 65.14893 73.09708 13253 ft 357 kts 152°
2026-05-01 07:32 65.10851 73.15966 14409 ft 368 kts 152°
2026-05-01 07:32 65.10469 73.16556 14514 ft 369 kts 152°
2026-05-01 07:33 65.08678 73.19307 14995 ft 373 kts 152°
2026-05-01 07:34 65.06452 73.22314 15599 ft 372 kts 160°
2026-05-01 07:34 65.01650 73.27048 16820 ft 378 kts 164°
2026-05-01 07:34 64.99209 73.29453 17432 ft 383 kts 163°
2026-05-01 07:35 64.96759 73.32000 18027 ft 388 kts 162°
2026-05-01 07:35 64.94290 73.34687 18572 ft 393 kts 162°
2026-05-01 07:35 64.91802 73.37485 19085 ft 397 kts 162°
2026-05-01 07:35 64.89309 73.40345 19605 ft 400 kts 162°
2026-05-01 07:36 64.86800 73.43251 20099 ft 404 kts 162°
2026-05-01 07:36 64.84263 73.46203 20588 ft 408 kts 162°
2026-05-01 07:36 64.81706 73.49179 21077 ft 412 kts 163°
2026-05-01 07:36 64.79127 73.52176 21570 ft 415 kts 163°
2026-05-01 07:37 64.73939 73.58185 22492 ft 422 kts 164°
2026-05-01 07:37 64.71298 73.61234 22960 ft 425 kts 164°
2026-05-01 07:37 64.68637 73.64297 23414 ft 428 kts 164°
2026-05-01 07:38 64.65953 73.67379 23821 ft 431 kts 165°
2026-05-01 07:38 64.63254 73.70472 24190 ft 434 kts 165°
2026-05-01 07:38 64.57814 73.76689 24963 ft 437 kts 165°
2026-05-01 07:39 64.55067 73.79816 25324 ft 440 kts 165°
2026-05-01 07:39 64.52307 73.82951 25673 ft 442 kts 165°
2026-05-01 07:39 64.46776 73.89210 26354 ft 447 kts 165°
2026-05-01 07:40 64.43975 73.92369 26695 ft 449 kts 166°
2026-05-01 07:40 64.41155 73.95543 27021 ft 451 kts 166°
2026-05-01 07:40 64.38318 73.98728 27343 ft 453 kts 166°
2026-05-01 07:40 64.35475 74.01912 27653 ft 455 kts 166°
2026-05-01 07:41 64.32620 74.05104 27966 ft 457 kts 166°
2026-05-01 07:41 64.29751 74.08303 28265 ft 459 kts 166°
2026-05-01 07:41 64.23971 74.14726 28843 ft 463 kts 166°
2026-05-01 07:42 64.21062 74.17947 29126 ft 465 kts 166°
2026-05-01 07:42 64.18170 74.21142 29389 ft 467 kts 166°
2026-05-01 07:42 64.15239 74.24374 29707 ft 467 kts 166°
2026-05-01 07:42 64.12307 74.27603 30117 ft 466 kts 167°
2026-05-01 07:43 64.09387 74.30815 30501 ft 464 kts 166°
2026-05-01 07:43 64.06479 74.34003 30825 ft 462 kts 166°
2026-05-01 07:43 64.00674 74.40333 31432 ft 461 kts 166°
2026-05-01 07:44 63.94897 74.46603 32072 ft 459 kts 166°
2026-05-01 07:44 63.89176 74.52783 32653 ft 457 kts 166°
2026-05-01 07:45 63.86300 74.55881 32950 ft 457 kts 166°
2026-05-01 07:45 63.83436 74.58960 33242 ft 456 kts 166°
2026-05-01 07:45 63.80572 74.62030 33530 ft 455 kts 166°
2026-05-01 07:45 63.77712 74.65085 33812 ft 454 kts 166°
2026-05-01 07:46 63.74854 74.68128 34070 ft 454 kts 166°
2026-05-01 07:46 63.72000 74.71161 34306 ft 453 kts 166°
2026-05-01 07:46 63.66269 74.77233 34657 ft 455 kts 165°
2026-05-01 07:47 63.63403 74.80263 34850 ft 455 kts 165°
2026-05-01 07:47 63.60544 74.83278 35036 ft 455 kts 165°
2026-05-01 07:47 63.57663 74.86307 35147 ft 456 kts 165°
2026-05-01 07:48 63.49007 74.95355 35148 ft 455 kts 165°
2026-05-01 07:48 63.43317 75.01279 35149 ft 453 kts 165°
2026-05-01 07:49 63.34767 75.10125 35152 ft 450 kts 165°
2026-05-01 07:50 63.29079 75.15976 35159 ft 450 kts 166°
2026-05-01 07:50 63.20546 75.24738 35164 ft 453 kts 163°
2026-05-01 07:51 63.17794 75.28356 35158 ft 466 kts 154°
2026-05-01 07:51 63.15261 75.33011 35163 ft 478 kts 146°
2026-05-01 07:52 63.08055 75.48456 35163 ft 482 kts 145°
2026-05-01 07:52 63.03234 75.58654 35162 ft 483 kts 146°
2026-05-01 07:53 62.95889 75.73872 35163 ft 484 kts 146°
2026-05-01 07:53 62.90974 75.83989 35159 ft 484 kts 146°
2026-05-01 07:55 62.78666 76.09127 35165 ft 483 kts 147°
2026-05-01 07:56 62.66360 76.33976 35164 ft 482 kts 147°
2026-05-01 07:57 62.58966 76.48767 35169 ft 481 kts 147°
2026-05-01 07:58 62.49077 76.68385 35170 ft 482 kts 148°
2026-05-01 07:59 62.39990 76.86251 35169 ft 483 kts 148°
2026-05-01 08:00 62.25022 77.15357 35174 ft 485 kts 148°
2026-05-01 08:01 62.17317 77.29219 35163 ft 468 kts 161°
2026-05-01 08:01 62.14422 77.32154 35180 ft 453 kts 171°
2026-05-01 08:01 62.11438 77.34046 35168 ft 440 kts 180°
2026-05-01 08:02 62.05505 77.35484 35160 ft 432 kts 185°
2026-05-01 08:03 61.96503 77.37459 35163 ft 434 kts 185°
2026-05-01 08:03 61.87466 77.39569 35166 ft 436 kts 184°
2026-05-01 08:04 61.75382 77.42390 35162 ft 437 kts 184°
2026-05-01 08:05 61.66359 77.44479 35159 ft 436 kts 184°
2026-05-01 08:06 61.57301 77.46571 35154 ft 435 kts 184°
2026-05-01 08:07 61.45295 77.49327 35160 ft 434 kts 184°
2026-05-01 08:08 61.36289 77.51378 35154 ft 433 kts 184°
2026-05-01 08:09 61.24330 77.54084 35152 ft 432 kts 184°
2026-05-01 08:09 61.18349 77.55430 35148 ft 432 kts 184°
2026-05-01 08:10 61.06441 77.58094 35149 ft 432 kts 184°
2026-05-01 08:11 60.94479 77.60750 35139 ft 432 kts 183°
2026-05-01 08:12 60.85497 77.62736 35146 ft 433 kts 183°
2026-05-01 08:13 60.76541 77.64708 35136 ft 433 kts 183°
2026-05-01 08:13 60.67683 77.70266 35126 ft 465 kts 158°
2026-05-01 08:14 60.62243 77.77589 35124 ft 470 kts 154°
2026-05-01 08:14 60.56836 77.85075 35126 ft 470 kts 155°
2026-05-01 08:15 60.48674 77.96072 35123 ft 469 kts 155°
2026-05-01 08:16 60.43211 78.03335 35121 ft 469 kts 155°
2026-05-01 08:16 60.37785 78.10531 35118 ft 469 kts 155°
2026-05-01 08:17 60.32322 78.17746 35117 ft 469 kts 155°
2026-05-01 08:17 60.26852 78.24933 35118 ft 469 kts 155°
2026-05-01 08:18 60.21380 78.32096 35113 ft 469 kts 155°
2026-05-01 08:19 60.10420 78.46364 35115 ft 469 kts 155°
2026-05-01 08:19 60.04947 78.53448 35110 ft 468 kts 155°
2026-05-01 08:20 59.99504 78.60465 35106 ft 468 kts 155°
2026-05-01 08:20 59.94019 78.67507 35104 ft 468 kts 155°
2026-05-01 08:21 59.88527 78.74529 35105 ft 468 kts 155°
2026-05-01 08:21 59.83062 78.81490 35113 ft 468 kts 155°
2026-05-01 08:22 59.77565 78.88463 35106 ft 469 kts 155°
2026-05-01 08:22 59.72063 78.95416 35106 ft 469 kts 155°
2026-05-01 08:23 59.66554 79.02351 35106 ft 469 kts 155°
2026-05-01 08:23 59.61041 79.09262 35103 ft 469 kts 155°
2026-05-01 08:24 59.55534 79.16139 35096 ft 468 kts 156°
2026-05-01 08:24 59.50023 79.22994 35098 ft 468 kts 156°
2026-05-01 08:25 59.44560 79.29764 35096 ft 468 kts 156°
2026-05-01 08:25 59.39052 79.36563 35095 ft 467 kts 156°
2026-05-01 08:26 59.33548 79.43330 35093 ft 467 kts 156°
2026-05-01 08:26 59.28039 79.50078 35086 ft 466 kts 156°
2026-05-01 08:27 59.22536 79.56790 35089 ft 466 kts 156°
2026-05-01 08:27 59.17024 79.63489 35088 ft 466 kts 156°
2026-05-01 08:28 59.11521 79.70151 35086 ft 465 kts 156°
2026-05-01 08:28 59.06020 79.76786 35083 ft 465 kts 156°
2026-05-01 08:29 59.00509 79.83407 35078 ft 465 kts 156°
2026-05-01 08:29 58.94994 79.90009 35076 ft 466 kts 155°
2026-05-01 08:30 58.89509 79.96551 35080 ft 466 kts 156°
2026-05-01 08:30 58.83991 80.03109 35079 ft 466 kts 155°
2026-05-01 08:31 58.78412 80.09357 35068 ft 459 kts 162°
2026-05-01 08:31 58.72587 80.14336 35068 ft 457 kts 164°
2026-05-01 08:32 58.66761 80.19107 35065 ft 457 kts 164°
2026-05-01 08:32 58.60917 80.23957 35064 ft 457 kts 163°
2026-05-01 08:33 58.55083 80.28848 35062 ft 457 kts 163°
2026-05-01 08:33 58.49246 80.33747 35062 ft 458 kts 163°
2026-05-01 08:34 58.43421 80.38619 35060 ft 457 kts 163°
2026-05-01 08:34 58.37583 80.43481 35058 ft 457 kts 163°
2026-05-01 08:35 58.31753 80.48319 35054 ft 457 kts 163°
2026-05-01 08:35 58.25921 80.53139 35056 ft 457 kts 163°
2026-05-01 08:36 58.20123 80.57914 35045 ft 457 kts 163°
2026-05-01 08:36 58.14290 80.62701 35049 ft 457 kts 163°
2026-05-01 08:37 58.08451 80.67476 35039 ft 457 kts 163°
2026-05-01 08:37 58.02612 80.72234 35039 ft 457 kts 163°
2026-05-01 08:38 57.96773 80.76975 35038 ft 457 kts 163°
2026-05-01 08:38 57.90930 80.81702 35036 ft 457 kts 163°
2026-05-01 08:39 57.85090 80.86410 35031 ft 457 kts 163°
2026-05-01 08:39 57.79248 80.91103 35024 ft 457 kts 163°
2026-05-01 08:40 57.70479 80.98117 35029 ft 457 kts 163°
2026-05-01 08:40 57.64629 81.02775 35030 ft 457 kts 163°
2026-05-01 08:41 57.58807 81.07394 35025 ft 457 kts 163°
2026-05-01 08:41 57.52941 81.12033 35020 ft 458 kts 163°
2026-05-01 08:42 57.47058 81.16669 35018 ft 458 kts 163°
2026-05-01 08:42 57.41181 81.21284 35014 ft 458 kts 163°
2026-05-01 08:43 57.35353 81.25845 35013 ft 458 kts 163°
2026-05-01 08:43 57.29472 81.30430 35015 ft 458 kts 163°
2026-05-01 08:44 57.23586 81.35005 35015 ft 458 kts 163°
2026-05-01 08:44 57.17704 81.39561 35016 ft 459 kts 163°
2026-05-01 08:45 57.11815 81.44109 35009 ft 459 kts 163°
2026-05-01 08:45 57.05926 81.48637 35011 ft 459 kts 163°
2026-05-01 08:46 57.00068 81.53131 35010 ft 459 kts 163°
2026-05-01 08:46 56.94182 81.57635 34994 ft 451 kts 163°
2026-05-01 08:47 56.91339 81.59817 34987 ft 435 kts 163°
2026-05-01 08:47 56.88594 81.61921 34989 ft 421 kts 164°
2026-05-01 08:47 56.85926 81.63960 34987 ft 408 kts 164°
2026-05-01 08:47 56.83355 81.65918 34993 ft 394 kts 164°
2026-05-01 08:48 56.78375 81.69683 35016 ft 388 kts 165°
2026-05-01 08:48 56.73324 81.73465 35018 ft 401 kts 164°
2026-05-01 08:49 56.68100 81.77383 35026 ft 410 kts 164°
2026-05-01 08:49 56.62819 81.81354 35018 ft 410 kts 164°
2026-05-01 08:50 56.58450 81.84640 35003 ft 401 kts 164°
2026-05-01 08:50 56.53320 81.88475 35022 ft 401 kts 164°
2026-05-01 08:51 56.48147 81.92323 35026 ft 402 kts 164°
2026-05-01 08:51 56.42956 81.96175 35020 ft 404 kts 163°
2026-05-01 08:52 56.37750 82.00029 35021 ft 405 kts 163°
2026-05-01 08:52 56.32527 82.03885 35025 ft 405 kts 163°
2026-05-01 08:53 56.27302 82.07731 35026 ft 406 kts 163°
2026-05-01 08:53 56.22068 82.11572 35028 ft 406 kts 163°
2026-05-01 08:54 56.16831 82.15405 35027 ft 405 kts 163°
2026-05-01 08:54 56.11619 82.19209 34960 ft 401 kts 163°
2026-05-01 08:55 56.09085 82.21058 34660 ft 397 kts 163°
2026-05-01 08:55 56.06533 82.22913 34235 ft 397 kts 163°
2026-05-01 08:55 56.03939 82.24790 33307 ft 407 kts 163°
2026-05-01 08:55 56.01278 82.26819 32031 ft 428 kts 159°
2026-05-01 08:56 55.98594 82.29440 31068 ft 442 kts 155°
2026-05-01 08:56 55.95913 82.32243 30216 ft 450 kts 154°
2026-05-01 08:56 55.93210 82.35093 29497 ft 451 kts 154°
2026-05-01 08:56 55.90527 82.37898 29256 ft 440 kts 155°
2026-05-01 08:57 55.87922 82.40584 29158 ft 426 kts 155°
2026-05-01 08:57 55.85388 82.43169 29067 ft 413 kts 155°
2026-05-01 08:57 55.82924 82.45667 28980 ft 401 kts 156°
2026-05-01 08:57 55.80573 82.48106 28890 ft 392 kts 150°
2026-05-01 08:58 55.78590 82.51425 28755 ft 392 kts 130°
2026-05-01 08:58 55.77251 82.55635 28487 ft 393 kts 112°
2026-05-01 08:58 55.76629 82.60372 28055 ft 395 kts 94°
2026-05-01 08:58 55.76802 82.65224 27598 ft 395 kts 75°
2026-05-01 08:59 55.77764 82.69742 27213 ft 389 kts 56°
2026-05-01 08:59 55.79396 82.73483 26871 ft 379 kts 38°
2026-05-01 08:59 55.81505 82.76156 26517 ft 367 kts 20°
2026-05-01 08:59 55.83870 82.77622 26157 ft 355 kts
2026-05-01 09:00 55.86259 82.77923 25813 ft 344 kts 351°
2026-05-01 09:00 55.88598 82.77354 25470 ft 335 kts 339°
2026-05-01 09:00 55.90730 82.75867 25126 ft 326 kts 327°
2026-05-01 09:00 55.92712 82.73860 24798 ft 322 kts 324°
2026-05-01 09:01 55.94629 82.71808 24468 ft 321 kts 324°
2026-05-01 09:01 55.96541 82.69781 24141 ft 319 kts 324°
2026-05-01 09:01 55.98432 82.67805 23832 ft 318 kts 325°
2026-05-01 09:01 56.00325 82.65801 23510 ft 314 kts 320°
2026-05-01 09:02 56.01875 82.63147 23108 ft 306 kts 303°
2026-05-01 09:02 56.02991 82.59946 22749 ft 301 kts 293°
2026-05-01 09:02 56.03751 82.56490 22390 ft 298 kts 284°
2026-05-01 09:02 56.04124 82.52873 22035 ft 295 kts 273°
2026-05-01 09:03 56.04043 82.49215 21683 ft 294 kts 261°
2026-05-01 09:03 56.03483 82.45695 21337 ft 294 kts 248°
2026-05-01 09:03 56.02471 82.42504 20996 ft 296 kts 236°
2026-05-01 09:03 56.01063 82.39800 20662 ft 299 kts 224°
2026-05-01 09:04 55.99329 82.37723 20335 ft 303 kts 211°
2026-05-01 09:04 55.97340 82.36401 20009 ft 308 kts 198°
2026-05-01 09:04 55.95204 82.35939 19698 ft 312 kts 186°
2026-05-01 09:04 55.93055 82.36194 19402 ft 316 kts 176°
2026-05-01 09:05 55.90934 82.37335 19074 ft 323 kts 159°
2026-05-01 09:05 55.88961 82.39256 18801 ft 323 kts 155°
2026-05-01 09:05 55.87029 82.41286 18508 ft 322 kts 154°
2026-05-01 09:05 55.85102 82.43322 18203 ft 320 kts 154°
2026-05-01 09:06 55.83189 82.45325 17871 ft 318 kts 154°
2026-05-01 09:06 55.81280 82.47311 17549 ft 316 kts 155°
2026-05-01 09:06 55.79261 82.48610 17172 ft 304 kts 180°
2026-05-01 09:06 55.77172 82.48685 16779 ft 301 kts 187°
2026-05-01 09:07 55.75050 82.48515 16175 ft 309 kts 187°
2026-05-01 09:07 55.72874 82.48384 15611 ft 316 kts 186°
2026-05-01 09:07 55.70648 82.48349 15056 ft 323 kts 184°
2026-05-01 09:07 55.68425 82.48398 14522 ft 328 kts 183°
2026-05-01 09:08 55.66079 82.48507 13973 ft 333 kts 182°
2026-05-01 09:08 55.63781 82.48645 13451 ft 335 kts 181°
2026-05-01 09:08 55.61444 82.48801 12933 ft 337 kts 181°
2026-05-01 09:08 55.59098 82.48962 12430 ft 338 kts 181°
2026-05-01 09:09 55.56753 82.49123 11972 ft 337 kts 181°
2026-05-01 09:09 55.54409 82.49284 11529 ft 336 kts 181°
2026-05-01 09:09 55.52074 82.49452 11095 ft 335 kts 180°
2026-05-01 09:09 55.49759 82.49625 10742 ft 331 kts 180°
2026-05-01 09:10 55.47460 82.49796 10383 ft 329 kts 180°
2026-05-01 09:10 55.45187 82.49965 10025 ft 326 kts 180°
2026-05-01 09:10 55.42918 82.50132 9592 ft 326 kts 180°
2026-05-01 09:10 55.40659 82.50300 9134 ft 322 kts 180°
2026-05-01 09:11 55.38467 82.50459 8692 ft 316 kts 179°
2026-05-01 09:11 55.36278 82.50618 8238 ft 311 kts 179°
2026-05-01 09:11 55.34130 82.50774 7779 ft 306 kts 179°
2026-05-01 09:11 55.32041 82.51203 7318 ft 303 kts 163°
2026-05-01 09:12 55.30213 82.52956 6957 ft 297 kts 140°
2026-05-01 09:12 55.28817 82.55519 6794 ft 285 kts 133°
2026-05-01 09:12 55.27545 82.58086 6655 ft 272 kts 131°
2026-05-01 09:12 55.26341 82.60532 6521 ft 266 kts 132°
2026-05-01 09:13 55.25122 82.62982 6419 ft 265 kts 132°
2026-05-01 09:13 55.23908 82.65402 6317 ft 262 kts 132°
2026-05-01 09:13 55.22714 82.67770 6185 ft 256 kts 132°
2026-05-01 09:13 55.21549 82.70077 6082 ft 251 kts 133°
2026-05-01 09:14 55.20401 82.72337 5910 ft 247 kts 133°
2026-05-01 09:14 55.19234 82.74547 5634 ft 246 kts 134°
2026-05-01 09:14 55.18066 82.76728 5370 ft 245 kts 134°
2026-05-01 09:14 55.16897 82.78910 5106 ft 245 kts 134°
2026-05-01 09:15 55.15733 82.81088 4865 ft 243 kts 134°
2026-05-01 09:15 55.14600 82.83208 4548 ft 239 kts 134°
2026-05-01 09:15 55.13478 82.85307 4274 ft 234 kts 134°
2026-05-01 09:15 55.12382 82.87349 3978 ft 224 kts 135°
2026-05-01 09:16 55.11114 82.88733 3701 ft 210 kts 165°
2026-05-01 09:16 55.09686 82.88985 3491 ft 204 kts 184°
2026-05-01 09:16 55.08289 82.88725 3287 ft 202 kts 186°
2026-05-01 09:17 55.05449 82.88188 2755 ft 202 kts 185°
2026-05-01 09:17 55.04110 82.87861 2570 ft 189 kts 196°
2026-05-01 09:17 55.02966 82.84248 2189 ft 181 kts 260°
2026-05-01 09:18 55.02791 82.82095 2003 ft 175 kts 260°
2026-05-01 09:18 55.02426 82.77987 1539 ft 166 kts 259°
2026-05-01 09:19 55.02068 82.74082 1128 ft 165 kts 258°
2026-05-01 09:19 55.01884 82.72105 912 ft 166 kts 257°
2026-05-01 09:19 55.01691 82.70090 680 ft 170 kts 259°
2026-05-01 09:20 55.01348 82.66177 371 ft 145 kts 259°
2026-05-01 09:20 55.01160 82.64133 374 ft 33 kts 261°
2026-05-01 09:21 55.00992 82.64074 372 ft 15 kts 100°
2026-05-01 09:21 55.00969 82.64252 372 ft 15 kts 103°
2026-05-01 09:21 55.00955 82.64360 372 ft 0 kts 101°
2026-05-01 09:22 55.00953 82.64375 372 ft 2 kts 101°
2026-05-01 09:22 55.00928 82.64569 372 ft 13 kts 104°
2026-05-01 09:23 55.00906 82.64732 372 ft 15 kts 102°
2026-05-01 09:23 55.00879 82.65133 372 ft 17 kts 81°
2026-05-01 09:24 55.00904 82.65512 372 ft 14 kts 81°
2026-05-01 09:24 55.00918 82.65678 372 ft 14 kts 81°
2026-05-01 09:24 55.00947 82.65989 372 ft 13 kts 81°
2026-05-01 09:25 55.00999 82.66271 372 ft 12 kts 72°
2026-05-01 09:25 55.01015 82.66450 372 ft 5 kts 147°
2026-05-01 09:26 55.00982 82.66466 372 ft 5 kts 170°
2026-05-01 09:26 55.00960 82.66473 372 ft 0 kts 170°